Weather Service Report


751 
ASUS45 KCYS 261210
RWRWY 

WYOMING REGIONAL WEATHER ROUNDUP
NATIONAL WEATHER SERVICE CHEYENNE WY
600 AM MDT THU MAY 26 2016

NOTE:  "FAIR" INDICATES FEW OR NO CLOUDS BELOW 12,000 FEET
WITH NO SIGNIFICANT WEATHER AND/OR OBSTRUCTIONS TO VISIBILITY.

WYZ001-261300-
YELLOWSTONE NATIONAL PARK
  
CITY           SKY/WX    TMP DP  RH WIND       PRES   REMARKS
LK YELLOWSTONE   N/A     31  29  92 CALM      30.12S                  
6HR MIN TEMP:  30; 6HR MAX TEMP:  33;                                

W YELLOWSTONE  NOT AVBL                                               

$$
WYZ002>013-054>058-071-098>099-261300-
NORTHERN WYOMING
  
CITY           SKY/WX    TMP DP  RH WIND       PRES   REMARKS
JACKSON        FAIR      34  34 100 CALM      30.10R                  
CODY           MOCLDY    43  39  87 S6        29.99S                  
GREYBULL       MOCLDY    50  44  80 CALM      29.95F                  
6HR MIN TEMP:  47; 6HR MAX TEMP:  52; 6HR PCP: TRACE;                

WORLAND        CLOUDY    43  41  93 SE5       29.97S                  
6HR MIN TEMP:  41; 6HR MAX TEMP:  48;                                

SHERIDAN       MOCLDY    46  40  79 W7        29.93R                  
6HR MIN TEMP:  43; 6HR MAX TEMP:  51; 6HR PCP:  0.03;                

BUFFALO        FAIR      48  36  63 W26G35    29.97R                  
6HR MIN TEMP:  41; 6HR MAX TEMP:  52;                                

GILLETTE       FAIR      43  39  86 E3        29.94S                  
6HR MIN TEMP:  39; 6HR MAX TEMP:  51;                                

HULETT         FAIR      43  41  93 S8        29.94S                  
NEWCASTLE      FAIR      41  36  81 N7        29.96F                  

$$
WYZ014>020-022>026-101>103-261300-
CENTRAL WYOMING
  
CITY           SKY/WX    TMP DP  RH WIND       PRES   REMARKS
BIG PINEY      FAIR      30  27  88 NW5       30.07F WCI  25          
6HR MIN TEMP:  30; 6HR MAX TEMP:  40;                                

PINEDALE       FAIR      30  30 100 MISG      30.08S                  
DUBOIS         FAIR      41  30  65 W16       30.05F                  
LANDER         FAIR      37  30  75 CALM      29.99R                  
6HR MIN TEMP:  37; 6HR MAX TEMP:  49;                                

RIVERTON       FAIR      44  32  62 W16       30.00S                  
6HR MIN TEMP:  42; 6HR MAX TEMP:  48;                                

CASPER         FAIR      38  34  85 W7        29.98S WCI  33          
6HR MIN TEMP:  35; 6HR MAX TEMP:  44;                                

DOUGLAS          N/A    N/A N/A N/A MISG      29.99R                  

$$
WYZ021-027>030-104>119-261300-
SOUTHERN WYOMING
  
CITY           SKY/WX    TMP DP  RH WIND       PRES   REMARKS
EVANSTON       FAIR      38  34  85 NE7       30.07F WCI  33          
6HR MIN TEMP:  36; 6HR MAX TEMP:  42;                                

KEMMERER         N/A     32  32 100 NW12      30.08S WCI  23          
FORT BRIDGER   SUNNY     37  36  93 W5        30.10S WCI  34          
ROCK SPRINGS   FAIR      35  32  88 W6        30.07R WCI  30          
6HR MIN TEMP:  34; 6HR MAX TEMP:  41;                                

DIXON          FAIR      35  30  82 NE3       30.09R                  
RAWLINS        FAIR      34  29  82 CALM      30.05S                  
6HR MIN TEMP:  32; 6HR MAX TEMP:  43;                                

SARATOGA       FAIR      30  30 100 S8        30.07F WCI  23          
LARAMIE        FAIR      34  27  75 CALM      30.06S                  
6HR MIN TEMP:  31; 6HR MAX TEMP:  45;                                

CHEYENNE       FAIR      39  32  76 NW7       30.02S WCI  34          
6HR MIN TEMP:  37; 6HR MAX TEMP:  43;                                

TORRINGTON     FAIR      39  35  86 NW6       29.95S WCI  35          
6HR MIN TEMP:  37; 6HR MAX TEMP:  50;                                

PINE BLUFFS    FAIR      36  34  93 CALM      30.01S                  

$$
  

Return to Home page


Western Regional Climate Center, wrcc@dri.edu